Location: Unspecified
(0.0000°N, 0.0000°E)
Time: 05:40:46
(UTC+02:00)

Cosmos 1295 Rocket - Visible Passes

Search period start: 02 May 2016 00:00
Search period end: 12 May 2016 00:00
Orbit: 943 x 995 km, 82.9° (Epoch: 30 April)

Date Brightness Start Highest point End Pass type
(mag) Time Alt. Az. Time Alt. Az. Time Alt. Az.
02 May 5.7 21:12:46 10° NNW 21:18:36 43° W 21:24:32 10° SSW visible
03 May 6.9 21:37:32 10° NW 21:42:00 21° W 21:46:31 10° SW visible
04 May 7.7 07:14:44 10° ESE 07:16:30 11° E 07:18:16 10° ENE visible
04 May 4.5 20:14:16 10° N 20:20:27 66° E 20:26:43 10° SSE visible
05 May 5.1 20:37:41 10° NNW 20:43:50 61° W 20:50:05 10° S visible
06 May 6.5 21:01:56 10° NW 21:07:13 29° W 21:12:36 10° SSW visible
07 May 7.4 21:27:47 10° WNW 21:30:38 13° W 21:33:30 10° WSW visible
08 May 7.2 07:01:08 10° SE 07:05:06 18° E 07:09:03 10° NE visible
09 May 6.1 07:22:52 10° SSE 07:28:30 38° E 07:34:04 10° NNE visible
09 May 6.0 20:26:37 10° NNW 20:32:27 41° W 20:38:21 10° SSW visible
10 May 7.2 20:51:30 10° NW 20:55:51 20° W 21:00:14 10° SW visible
11 May 7.4 06:28:09 10° ESE 06:30:18 12° E 06:32:27 10° ENE visible
